Location: Oberwangen
(47.4286°N, 8.9679°E)
Time: 21:47:28
(UTC+00:00)

FALCON 9 DEB - Pass Details

Date: 17 October 2021
Orbit: 345 x 354 km, 53.0° (Epoch: 28 November)

Event Time Altitude Azimuth Distance (km) Brightness Sun altitude
Exits shadow 04:53:14 12° 247° (WSW) 1,259 4.9 -9.6°
Maximum altitude 04:54:13 14° 227° (SW) 1,183 4.9 -9.4°
Drops below altitude 10° 04:55:50 10° 195° (SSW) 1,369 5.5 -9.2°
Sets 04:58:35 0° 167° (SSE) 2,209 7.0 -8.7°
